SCP
0 0 0 0 0 0 0 0 0 0 0 0 0 0 0 0 0 0 0 0 0 0 0 0 0 1 1 1 1 1 1 1 1 1 1 1 1 1
0 0 0 0 0 0 0 0 0 0 0 0 0 0 0 0 0 0 0 0 0 0 0 0 0 0 0 1 1 1 1 1 1 1 1 1 1 1
0 0 0 0 0 0 0 0 0 0 0 0 0 0 0 0 0 0 0 0 0 0 0 0 0 0 0 0 0 0 0 0 0 1 1 1 1 1
0 0 0 0 0 0 0 0 0 0 0 0 0 0 0 0 0 0 0 0 0 0 0 0 0 0 0 0 0 0 0 0 0 0 0 1 1 1
0 0 0 0 0 0 0 0 0 0 0 0 0 0 0 0 0 0 0 0 0 0 0 0 0 0 0 0 0 0 0 0 0 0 0 0 1 1
0 0 0 0 0 0 0 0 0 0 0 0 0 0 0 0 0 0 0 0 0 0 0 0 0 0 0 0 0 0 0 0 0 0 0 0 0 0
0 0 0 0 0 0 0 0 0 0 0 0 0 0 0 0 0 0 0 0 0 0 0 0 0 0 0 0 0 0 0 0 0 0 0 0 0 0
0 0 0 0 0 0 0 0 0 0 0 0 0 0 0 0 0 0 0 0 0 0 0 0 0 0 0 0 0 0 0 0 0 0 0 0 0 0
0 0 0 0 0 0 0 0 0 0 0 0 0 0 0 0 0 0 0 0 0 0 0 0 0 0 0 0 0 0 0 0 0 0 0 0 0 0
0 0 0 0 0 0 0 0 0 0 0 0 0 0 0 0 0 0 0 0 0 0 0 0 0 0 0 0 0 0 0 0 0 0 0 0 0 0
0 0 0 0 0 0 0 0 0 0 0 0 0 0 0 0 0 0 0 0 0 0 0 0 0 0 0 0 0 0 0 0 0 0 0 0 0 0
0 0 0 0 0 0 0 0 0 0 0 0 0 0 0 0 0 0 0 0 0 0 0 0 0 0 0 0 0 0 0 0 0 0 0 0 0 0
0 0 0 0 0 0 0 0 0 0 0 0 0 0 0 0 0 0 0 0 0 0 0 0 0 0 0 0 0 0 0 0 0 0 0 0 0 0
0 0 0 0 0 0 0 0 0 0 0 0 0 0 0 0 0 0 0 0 0 0 0 0 0 0 0 0 0 0 0 0 0 0 0 0 0 0
0 0 0 0 0 0 0 0 0 0 0 0 0 0 0 0 0 0 0 0 0 0 0 0 0 0 0 0 0 0 0 0 0 0 0 0 0 0
0 0 0 0 0 0 0 0 0 0 0 0 0 0 0 0 0 0 0 0 0 0 0 0 0 0 0 0 0 0 0 0 0 0 0 0 0 0
0 0 0 0 0 0 0 0 0 0 0 0 0 0 0 0 0 0 0 0 0 0 0 0 0 0 0 0 0 0 0 0 0 0 0 0 0 0
0 0 0 0 0 0 0 0 0 0 0 0 0 0 0 0 0 0 0 0 0 0 0 0 0 0 0 0 0 0 0 0 0 0 0 0 0 0
0 0 0 0 0 0 0 0 0 0 0 0 0 0 0 0 0 0 0 0 0 0 0 0 0 0 0 0 0 0 0 0 0 0 0 0 0 0
0 0 0 0 0 0 0 0 0 0 0 0 0 0 0 0 0 0 0 0 0 0 0 0 0 0 0 0 0 0 0 0 0 0 0 0 0 0
0 0 0 0 0 0 0 0 0 0 0 0 0 0 0 0 0 0 0 0 0 0 0 0 0 0 0 0 0 0 0 0 0 0 0 0 0 0
0 0 0 0 0 0 0 0 0 0 0 0 0 0 0 0 0 0 0 0 0 0 0 0 0 0 0 0 0 0 0 0 0 0 0 0 0 0
0 0 0 0 0 0 0 0 0 0 0 0 0 0 0 0 0 0 0 0 0 0 0 0 0 0 0 0 0 0 0 0 0 0 0 0 0 0
Wind_Speed
1 1 1 1 1 1 2 2 3 2 1 2 1 1 1 0 1 1 1 3 4 5 5 5 6 6 7 8 8 8 9 10 10 11 12 13 15 16
0 1 1 1 1 2 2 1 2 3 1 1 1 1 1 1 1 1 1 3 4 6 6 6 6 7 7 7 8 8 9 9 10 10 11 12 13 14
1 1 1 1 1 1 1 1 1 2 2 1 1 1 1 1 1 1 1 1 2 6 7 7 7 7 7 8 8 9 9 9 10 11 11 12 12 13
0 1 1 1 2 1 1 1 1 1 2 1 1 1 1 1 1 1 1 1 2 4 5 5 6 6 7 8 8 8 9 10 10 11 11 12 13 13
2 2 2 2 2 1 1 1 1 1 1 1 1 1 1 1 1 1 2 2 2 2 3 3 4 5 6 7 7 8 8 9 10 11 11 12 12 13
1 2 3 3 3 2 2 1 1 1 1 1 0 1 1 1 1 1 2 2 2 2 2 2 3 4 6 7 8 8 8 9 9 10 11 11 11 12
1 1 3 4 5 3 2 2 2 1 1 1 0 1 1 1 1 1 1 2 2 1 1 2 2 2 3 5 7 8 8 9 9 10 10 10 11 12
1 1 2 2 3 3 3 4 4 3 2 1 1 1 1 1 1 0 0 1 2 2 1 3 1 2 3 3 6 8 8 9 9 9 10 10 11 11
3 2 2 2 3 1 1 1 1 3 4 4 3 2 2 2 1 1 1 1 2 2 0 3 2 3 3 3 6 7 7 7 8 8 9 9 10 11
3 4 3 2 3 3 2 1 1 1 2 2 3 3 3 3 2 2 2 1 2 2 1 2 2 3 3 3 4 4 4 5 6 7 7 8 9 10
3 4 4 4 5 6 4 2 1 2 2 2 4 4 4 4 3 1 0 1 2 2 1 1 2 3 3 3 3 4 5 6 7 7 8 8 9 8
2 3 5 5 6 7 5 4 2 2 1 2 1 2 2 2 1 2 2 1 1 2 2 0 1 2 3 3 2 3 3 5 7 8 8 8 8 4
3 3 3 5 5 6 6 4 4 3 1 1 1 2 2 2 1 0 2 2 2 2 2 1 1 1 1 3 3 3 2 3 3 4 6 8 8 5
4 4 4 5 5 5 4 4 4 4 2 2 2 1 1 1 1 1 1 1 2 2 2 1 1 1 1 2 3 3 3 3 2 3 3 5 6 6
4 6 6 6 4 3 4 5 4 3 3 2 1 0 0 1 1 2 2 2 2 1 2 1 1 1 1 2 3 3 3 3 3 3 4 4 3 3
3 4 5 5 4 4 3 2 2 3 3 3 2 1 1 1 2 2 2 2 2 3 4 4 3 1 1 2 2 3 2 3 4 4 4 3 3 3
5 3 2 2 3 2 2 2 2 2 2 2 2 2 1 1 1 1 2 2 2 2 4 4 4 3 2 2 1 2 2 3 3 4 4 4 4 3
7 4 4 4 4 4 4 3 2 2 2 2 2 2 2 2 1 2 2 2 2 2 2 3 4 4 4 3 2 1 2 3 4 4 3 3 5 4
5 4 4 5 4 4 4 4 3 3 3 3 3 2 2 2 2 2 2 2 1 1 2 2 3 3 3 4 5 2 2 3 4 4 3 3 5 6
4 5 5 5 5 5 5 4 4 3 3 3 3 2 2 2 2 2 1 1 1 1 2 2 2 1 1 3 4 4 4 3 3 4 4 4 5 7
5 5 5 5 5 5 5 4 4 4 4 3 3 3 2 3 2 1 1 1 1 1 1 2 3 5 2 1 3 4 4 5 5 4 4 5 5 5
6 6 5 5 5 5 5 5 5 4 4 3 3 3 2 2 2 2 1 1 0 1 1 2 3 3 1 2 4 6 6 5 6 9 8 6 4 4
7 6 6 6 6 5 5 6 6 4 4 4 3 3 3 2 2 1 1 0 0 1 2 2 2 2 2 3 4 5 7 7 5 5 5 8 11 14
Wind_Direction
101 104 105 82 87 95 109 135 140 124 343 312 334 336 347 206 192 182 211 226 224 235 240 241 242 244 245 243 243 244 244 241 238 233 232 233 234 236
128 107 98 94 81 84 94 105 129 145 171 278 285 301 322 319 165 185 230 243 237 236 241 245 245 245 248 251 250 247 246 245 244 241 237 237 237 239
51 103 104 110 94 87 90 97 111 131 151 278 303 326 358 353 349 324 268 241 256 252 246 244 243 243 247 251 252 252 249 247 246 243 241 241 242 242
146 128 135 119 95 89 92 94 109 145 151 190 313 337 336 307 301 296 302 264 263 259 250 247 250 251 254 254 255 255 254 251 248 246 246 247 247 246
187 171 174 142 127 121 116 116 106 98 132 151 265 316 324 334 360 341 331 324 299 279 258 251 259 265 265 263 260 257 255 254 252 248 248 250 251 252
198 181 179 169 169 160 144 145 126 96 100 121 195 318 316 326 29 2 343 337 320 326 327 288 272 274 272 271 266 260 258 257 255 252 249 249 251 254
204 212 203 189 179 173 164 170 144 126 113 106 65 1 329 341 329 304 311 317 311 311 325 303 292 286 280 275 270 263 259 258 256 253 252 251 251 252
199 221 212 194 190 185 173 172 168 161 168 163 181 217 264 259 249 246 293 2 315 307 340 299 285 274 271 259 261 263 262 260 257 255 256 256 255 255
196 195 199 179 179 175 203 185 191 196 185 172 182 214 226 225 201 234 229 225 246 269 338 288 291 275 270 274 277 274 270 267 263 260 260 261 260 260
202 196 190 203 195 180 177 167 260 280 240 200 196 218 224 225 205 201 211 252 282 284 199 255 288 280 288 289 290 293 294 291 284 276 273 270 267 266
220 207 194 202 211 183 162 168 211 308 300 243 220 233 243 243 206 141 105 52 320 303 281 228 294 303 301 296 300 306 305 303 301 294 288 283 277 275
224 228 218 208 208 183 170 170 186 247 314 3 355 331 308 303 233 182 178 172 226 293 298 304 303 335 320 307 309 318 315 305 304 297 293 290 288 280
201 215 225 211 200 186 175 179 198 183 155 91 21 1 8 13 9 147 178 171 182 246 275 283 278 272 267 302 313 313 322 317 315 303 300 298 292 270
196 205 210 204 195 184 176 179 166 138 119 99 72 38 19 359 344 352 355 209 204 228 276 265 247 252 269 287 294 311 320 313 317 316 320 318 307 292
194 199 197 192 180 172 171 161 144 132 127 122 127 145 292 320 358 9 9 13 13 4 1 359 304 280 239 256 284 301 316 320 342 339 332 327 318 318
174 173 166 157 144 141 135 132 132 144 145 146 152 142 51 43 36 29 27 17 32 360 356 4 360 334 278 268 266 291 307 313 332 331 321 313 311 308
148 130 129 134 140 136 126 125 125 122 122 122 123 113 89 72 41 26 44 48 56 4 342 340 342 338 295 272 312 329 335 331 327 328 330 320 307 309
150 158 170 169 171 168 158 145 135 136 135 130 124 126 120 109 78 38 49 61 52 12 350 340 349 360 1 354 13 357 347 329 323 324 324 319 308 312
162 172 174 175 172 167 162 156 155 152 140 130 126 124 118 105 94 72 58 57 44 6 345 349 10 33 14 328 313 358 353 323 326 324 313 300 293 299
173 173 174 170 166 163 161 153 145 139 131 127 123 119 115 110 100 86 71 60 29 359 352 353 1 360 276 270 283 301 327 319 321 315 306 300 286 287
175 170 167 163 160 156 153 147 144 142 137 130 125 122 119 112 107 98 79 31 45 20 343 316 295 307 285 312 308 301 297 301 297 290 300 309 311 311
170 168 164 159 156 153 148 143 138 136 135 130 130 128 124 120 121 112 100 75 347 280 283 289 308 329 350 309 293 293 296 302 300 297 286 279 286 296
171 166 162 159 155 150 147 146 144 143 142 138 135 132 128 124 124 123 123 125 283 301 304 307 314 312 294 282 287 292 298 304 305 305 292 284 284 282